[[{"header":{"parameterUnit":"m.s-1","parameterCategory":1,"la1":30.2991,"la2":30.254,"lo1":-89.0895,"lo2":-89.0444,"dy":0.0017,"dx":0.0017,"nx":28,"ny":28,"refTime":"2024-08-30T03:00:00:Z","depth":0,"parameterNumber":2,"parameterNumberName":"U-component_of_WINDS"},"data":[0,0,0,0,0,0,0,0,0,0,0,0,0,0,0,0,0,0,0,0,0,0,0,0,0,0,0,0,0,0,0,0,0,0,0,0,0,0,0,0,0,0,0,0,0,0,0,0,0,0,0,0,0,0,0,0,0,0,-1.4863,-1.4863,0,-1.4831,-1.4831,-1.4831,-1.4787,-1.4786,-1.4786,-1.4785,-1.4753,-1.4753,-1.4753,0,0,0,0,0,0,0,0,0,0,0,0,0,-1.4886,-1.4886,-1.4863,-1.4863,-1.4862,-1.4831,-1.4831,-1.4831,-1.4787,-1.4786,-1.4785,-1.4785,-1.4753,-1.4753,-1.4753,0,0,0,0,0,0,0,0,0,0,0,0,0,-1.4867,-1.4886,-1.4863,-1.4837,-1.4834,-1.4832,-1.4831,-1.483,-1.4787,-1.4786,-1.4785,-1.4784,-1.4754,-1.4753,-1.4753,-1.4774,0,0,-1.4752,-1.4752,0,0,0,0,0,0,0,0,-1.4868,-1.4866,-1.4841,-1.4839,-1.4836,-1.4812,-1.4827,-1.4812,-1.4788,-1.4805,-1.4785,-1.4784,-1.4774,-1.4772,-1.4768,-1.4772,-1.4771,-1.4752,-1.4752,-1.4752,-1.4752,0,0,0,0,0,0,0,-1.487,-1.4868,-1.4851,-1.4841,-1.4838,-1.4827,-1.4823,-1.4824,-1.4796,-1.4804,-1.48,-1.4797,-1.4772,-1.4769,-1.4767,-1.4771,-1.4752,-1.4752,-1.4752,-1.4752,-1.4788,-1.4789,0,0,0,0,0,0,-1.4875,-1.4869,-1.4852,-1.485,-1.485,-1.4827,-1.4823,-1.4821,-1.4796,-1.4791,-1.4798,-1.4795,-1.477,-1.4768,-1.4766,-1.4787,-1.4752,-1.4752,-1.4752,-1.4787,-1.4788,-1.4789,0,0,0,0,0,0,-1.4876,-1.4874,-1.4853,-1.4858,-1.4855,-1.4828,-1.4826,-1.4821,-1.4817,-1.4792,-1.4787,-1.48,-1.4769,-1.4766,-1.4772,-1.4785,-1.4752,-1.4752,-1.4785,-1.4787,-1.4788,-1.4829,0,0,0,0,0,0,-1.4876,-1.4874,-1.4882,-1.4859,-1.4855,-1.4859,-1.4827,-1.4821,-1.4817,-1.4813,-1.4792,-1.4788,-1.4768,-1.4772,-1.4771,-1.4784,-1.4751,-1.4784,-1.4786,-1.4788,-1.4827,-1.4832,-1.4837,0,0,0,0,0,-1.4877,-1.4895,-1.4883,-1.4881,-1.4864,-1.486,-1.4858,-1.4834,-1.4818,-1.4825,-1.4809,-1.4788,-1.4784,-1.4773,-1.4772,-1.4785,-1.4783,-1.4785,-1.4788,-1.4824,-1.4831,-1.4837,0,0,0,0,0,0,-1.4921,-1.4892,-1.4877,-1.4888,-1.4877,-1.4853,-1.4861,-1.4842,-1.4835,-1.4832,-1.4803,-1.4799,-1.4807,-1.4797,-1.4785,-1.4802,-1.478,-1.4783,-1.4809,-1.4815,-1.482,-1.4821,-1.4751,0,0,0,0,0,-1.4932,-1.4931,-1.4906,-1.4918,-1.4913,-1.4888,-1.4886,-1.4869,-1.4856,-1.4851,-1.4835,-1.4823,-1.4819,-1.4817,-1.4812,-1.4826,-1.4819,-1.4834,-1.4839,-1.4843,-1.4845,-1.485,-1.4855,-1.4797,-1.4797,-1.4797,0,0,-1.4955,-1.4939,-1.494,-1.4927,-1.4916,-1.4915,-1.4884,-1.4886,-1.4884,-1.4851,-1.4854,-1.4842,-1.4827,-1.4836,-1.4839,-1.4828,-1.486,-1.4846,-1.485,-1.4849,-1.4853,-1.4858,-1.4863,-1.4799,-1.4798,-1.4798,0,0,-1.4995,-1.4984,-1.4992,-1.4981,-1.4964,-1.4948,-1.495,-1.4928,-1.4918,-1.4921,-1.4895,-1.4894,-1.4888,-1.4877,-1.4871,-1.4907,-1.4887,-1.4907,-1.4933,-1.4937,-1.4942,-1.4946,-1.4956,-1.4961,-1.4909,-1.4909,-1.4909,0,-1.5025,-1.5023,-1.4998,-1.5,-1.4994,-1.4963,-1.4971,-1.4962,-1.4945,-1.4941,-1.4929,-1.4919,-1.4907,-1.4912,-1.4921,-1.4918,-1.4918,-1.4908,-1.4943,-1.4947,-1.495,-1.496,-1.4964,-1.4911,-1.4911,-1.4911,-1.491,0,-1.506,-1.5059,-1.5067,-1.505,-1.5046,-1.5051,-1.5026,-1.5024,-1.5008,-1.4992,-1.4995,-1.4979,-1.4969,-1.497,-1.4954,-1.4972,-1.4965,-1.4949,-1.4925,-1.4958,-1.4967,-1.4971,-1.4914,-1.4914,-1.4913,-1.4912,0,0,-1.5126,-1.5095,-1.5098,-1.5089,-1.5069,-1.5067,-1.5071,-1.506,-1.5059,-1.5048,-1.5049,-1.5044,-1.5028,-1.5021,-1.5004,-1.5009,-1.5035,-1.4991,-1.499,-1.4998,-1.5052,-1.5063,-1.5068,-1.5023,-1.5023,-1.5024,-1.5052,0,-1.5161,-1.5164,-1.5141,-1.515,-1.5148,-1.5118,-1.5121,-1.5108,-1.5093,-1.5089,-1.5073,-1.5069,-1.505,-1.5045,-1.5048,-1.5031,-1.5045,-1.5029,-1.5022,-1.5022,-1.5024,-1.5073,-1.5085,-1.5113,-1.5056,-1.5056,-1.5057,0,-1.5202,-1.5192,-1.5201,-1.5178,-1.5176,-1.5179,-1.5166,-1.5163,-1.5148,-1.5137,-1.5129,-1.5109,-1.511,-1.5089,-1.5089,-1.5079,-1.5074,-1.5066,-1.5066,-1.5063,-1.504,-1.5069,-1.5121,-1.5125,-1.5062,-1.5062,-1.5061,0,-1.5247,-1.5236,-1.5239,-1.5233,-1.5207,-1.5209,-1.5199,-1.5182,-1.5177,-1.5167,-1.5163,-1.5154,-1.5148,-1.5141,-1.5118,-1.5106,-1.512,-1.5098,-1.511,-1.511,-1.5113,-1.5113,-1.5163,-1.5114,-1.5114,-1.5114,-1.5114,0,-1.5287,-1.5292,-1.5258,-1.526,-1.5265,-1.5239,-1.5245,-1.5232,-1.5217,-1.5215,-1.519,-1.5189,-1.516,-1.5156,-1.5139,-1.514,-1.5138,-1.5129,-1.5123,-1.513,-1.513,-1.5125,-1.5122,-1.5115,-1.5115,-1.5114,-1.5114,0,-1.5337,-1.5315,-1.5316,-1.5291,-1.5285,-1.529,-1.5268,-1.5268,-1.5252,-1.525,-1.5248,-1.5223,-1.5216,-1.5193,-1.5181,-1.5169,-1.5175,-1.5167,-1.518,-1.5176,-1.5189,-1.5187,-1.5236,-1.524,-1.519,-1.5191,-1.5191,0,-1.5363,-1.5366,-1.5342,-1.5338,-1.5328,-1.5324,-1.5318,-1.5292,-1.5287,-1.5269,-1.5272,-1.5263,-1.5254,-1.5244,-1.5224,-1.5215,-1.5205,-1.5223,-1.5203,-1.5208,-1.5202,-1.5202,-1.5201,-1.5226,-1.5227,-1.5228,-1.5228,0,-1.5411,-1.5399,-1.5392,-1.538,-1.5374,-1.5364,-1.5352,-1.5351,-1.5322,-1.5318,-1.531,-1.5303,-1.529,-1.5281,-1.5268,-1.5256,-1.5237,-1.5234,-1.5236,-1.5241,-1.5248,-1.5242,-1.5189,-1.5233,-1.5233,-1.5232,-1.5232,-1.5232,-1.5448,-1.5449,-1.5431,-1.5423,-1.5412,-1.5401,-1.5399,-1.5383,-1.5376,-1.5362,-1.5348,-1.5342,-1.5325,-1.5305,-1.5295,-1.5289,-1.5279,-1.5282,-1.5283,-1.5283,-1.5285,-1.525,-1.5287,-1.5287,-1.5287,-1.5287,-1.5286,0,-1.5493,-1.5479,-1.5473,-1.5456,-1.545,-1.5433,-1.5418,-1.5414,-1.5408,-1.5395,-1.5386,-1.5376,-1.5367,-1.5346,-1.5335,-1.5334,-1.5325,-1.5332,-1.5331,-1.5328,-1.5296,-1.5295,-1.5339,-1.5339,-1.5339,-1.5339,-1.5339,-1.5339,-1.5515,-1.5515,-1.5501,-1.5495,-1.5482,-1.5475,-1.5468,-1.5457,-1.5446,-1.5436,-1.5428,-1.5414,-1.5397,-1.5384,-1.5374,-1.5369,-1.5365,-1.5374,-1.5365,-1.5336,-1.5331,-1.5326,-1.5324,-1.5374,-1.5374,-1.5397,-1.5397,-1.5398]},{"header":{"parameterUnit":"m.s-1","parameterCategory":1,"la1":30.2991,"la2":30.254,"lo1":-89.0895,"lo2":-89.0444,"dy":0.0017,"dx":0.0017,"nx":28,"ny":28,"refTime":"2024-08-30T03:00:00:Z","depth":0,"parameterNumber":3,"parameterNumberName":"V-component_of_WINDS"},"data":[0,0,0,0,0,0,0,0,0,0,0,0,0,0,0,0,0,0,0,0,0,0,0,0,0,0,0,0,0,0,0,0,0,0,0,0,0,0,0,0,0,0,0,0,0,0,0,0,0,0,0,0,0,0,0,0,0,0,1.8215,1.8216,0,1.8274,1.8275,1.8276,1.823,1.8228,1.8226,1.8224,1.8287,1.829,1.8294,0,0,0,0,0,0,0,0,0,0,0,0,0,1.8065,1.8068,1.8215,1.8216,1.8217,1.8274,1.8275,1.8276,1.823,1.8228,1.8225,1.8223,1.8286,1.829,1.8294,0,0,0,0,0,0,0,0,0,0,0,0,0,1.8128,1.8069,1.8215,1.8201,1.82,1.8274,1.8275,1.8276,1.8231,1.8228,1.8225,1.8222,1.8284,1.829,1.8295,1.8387,0,0,1.8311,1.8313,0,0,0,0,0,0,0,0,1.8124,1.8133,1.8202,1.8202,1.8201,1.8242,1.8245,1.8313,1.8231,1.8219,1.8224,1.8221,1.8274,1.828,1.8298,1.839,1.8392,1.8311,1.8315,1.8317,1.8318,0,0,0,0,0,0,0,1.812,1.8131,1.8238,1.8203,1.8203,1.8192,1.8198,1.8258,1.8263,1.822,1.8217,1.8224,1.8274,1.8293,1.8299,1.8393,1.8311,1.8316,1.8319,1.8321,1.8565,1.8568,0,0,0,0,0,0,1.8117,1.8127,1.8237,1.824,1.8155,1.8197,1.8204,1.8232,1.8262,1.8264,1.8227,1.8222,1.8285,1.8293,1.8301,1.8412,1.8317,1.8322,1.8325,1.8561,1.8565,1.8569,0,0,0,0,0,0,1.8114,1.8127,1.8234,1.8183,1.8196,1.8203,1.8235,1.8234,1.8254,1.8267,1.8268,1.8246,1.8283,1.8294,1.8366,1.8413,1.8324,1.8329,1.8558,1.8563,1.8567,1.8633,0,0,0,0,0,0,1.811,1.8126,1.816,1.8184,1.8199,1.8297,1.8238,1.8238,1.8263,1.8257,1.8285,1.8287,1.8282,1.8358,1.8371,1.8419,1.8333,1.8553,1.856,1.8566,1.8627,1.864,1.8651,0,0,0,0,0,1.8104,1.8177,1.8162,1.8176,1.8242,1.83,1.8309,1.8301,1.8267,1.8302,1.831,1.8286,1.8406,1.8366,1.838,1.843,1.855,1.8558,1.8565,1.8621,1.8637,1.865,0,0,0,0,0,0,1.8159,1.818,1.8164,1.8246,1.8272,1.8292,1.8336,1.8318,1.8354,1.8347,1.8337,1.8344,1.842,1.8432,1.8387,1.8521,1.8473,1.8483,1.8511,1.8526,1.8537,1.8533,1.8337,0,0,0,0,0,1.818,1.8225,1.8241,1.8312,1.8326,1.8329,1.8354,1.8346,1.8372,1.8383,1.8397,1.8425,1.8468,1.8498,1.8539,1.8628,1.8634,1.867,1.8682,1.8691,1.8701,1.8751,1.8767,1.8593,1.8593,1.8593,0,0,1.8225,1.8242,1.8271,1.8324,1.8342,1.839,1.8338,1.8391,1.8427,1.8391,1.846,1.8472,1.8502,1.8583,1.862,1.8596,1.875,1.8701,1.8709,1.8713,1.876,1.8776,1.8791,1.8598,1.8598,1.8597,0,0,1.8332,1.8349,1.841,1.843,1.8459,1.8461,1.8476,1.85,1.8506,1.8575,1.855,1.8593,1.8668,1.8691,1.8713,1.8829,1.8808,1.8843,1.8906,1.8954,1.8968,1.898,1.9023,1.9038,1.8852,1.8852,1.8852,0,1.8384,1.8455,1.8444,1.8499,1.8523,1.8493,1.8556,1.8576,1.8618,1.8636,1.8608,1.8703,1.8721,1.8808,1.8837,1.8855,1.8872,1.884,1.8966,1.8979,1.899,1.903,1.9046,1.8856,1.8856,1.8855,1.8855,0,1.8518,1.8567,1.8614,1.8654,1.8684,1.8742,1.8742,1.8773,1.8763,1.8768,1.8839,1.886,1.8905,1.8925,1.8915,1.9011,1.8996,1.8968,1.8919,1.901,1.9049,1.9064,1.8862,1.8861,1.8859,1.8858,0,0,1.8661,1.8695,1.8712,1.8731,1.8761,1.88,1.8857,1.8901,1.8929,1.8959,1.9008,1.9073,1.9047,1.9072,1.9065,1.9107,1.92,1.9074,1.9075,1.9097,1.9308,1.9329,1.9348,1.9186,1.9189,1.9191,1.9306,0,1.8769,1.8869,1.8862,1.8956,1.9002,1.8975,1.9026,1.905,1.9057,1.9098,1.9105,1.9152,1.9114,1.9129,1.917,1.918,1.9242,1.9171,1.9233,1.9235,1.9226,1.9367,1.939,1.9497,1.932,1.9323,1.9325,0,1.8909,1.8944,1.9043,1.9067,1.9087,1.9132,1.9172,1.9211,1.9239,1.9241,1.9269,1.9255,1.9315,1.9264,1.9347,1.9299,1.9324,1.9333,1.9337,1.9343,1.9286,1.9378,1.9531,1.9548,1.9348,1.9346,1.9344,0,1.9005,1.9076,1.9145,1.9161,1.9191,1.9224,1.9238,1.9263,1.929,1.9326,1.9344,1.9386,1.9409,1.9443,1.9441,1.9404,1.9526,1.9475,1.953,1.9531,1.9558,1.9556,1.9718,1.9572,1.9572,1.9572,1.9571,0,1.9127,1.9189,1.9188,1.923,1.9299,1.9291,1.936,1.9371,1.9393,1.9438,1.9417,1.946,1.9455,1.9499,1.9498,1.9567,1.9578,1.9582,1.9581,1.9584,1.9584,1.9601,1.9594,1.9576,1.9575,1.9574,1.9574,0,1.9245,1.9247,1.932,1.9343,1.935,1.94,1.942,1.9461,1.9465,1.9523,1.9536,1.9544,1.9594,1.9595,1.9653,1.9653,1.9738,1.9728,1.9728,1.9727,1.9783,1.9778,1.9962,1.9986,1.9824,1.9825,1.9827,0,1.9324,1.9371,1.9398,1.9427,1.9443,1.9489,1.9516,1.951,1.954,1.9576,1.9613,1.9661,1.9699,1.9781,1.9793,1.9837,1.9829,1.9891,1.9836,1.9838,1.9832,1.9829,1.9835,1.9902,1.9904,1.9905,1.9906,0,1.9463,1.9462,1.9502,1.9543,1.9577,1.9609,1.9639,1.9663,1.9661,1.9696,1.9746,1.9776,1.9835,1.9884,1.9927,1.9943,1.9925,1.9923,1.9939,1.9943,1.9941,1.9944,1.9758,1.9919,1.9918,1.9917,1.9916,1.9916,1.9565,1.9606,1.9632,1.9678,1.97,1.9728,1.9768,1.9778,1.982,1.9867,1.9861,1.9918,1.9946,2.0002,2.0022,2.0067,2.0046,2.0068,2.0074,2.008,2.0086,1.9933,2.0075,2.0075,2.0074,2.0074,2.0074,0,1.9704,1.972,1.9762,1.9804,1.9841,1.982,1.9852,1.9884,1.9934,1.9962,2.0,2.0059,2.0106,2.0122,2.0168,2.0202,2.0195,2.0214,2.0212,2.0216,2.0102,2.0084,2.0219,2.0219,2.0219,2.0219,2.0219,2.0219,1.9781,1.985,1.9852,1.9931,1.9947,2.0002,2.0022,2.0049,2.0071,2.0137,2.0176,2.0186,2.0209,2.0257,2.03,2.0304,2.0322,2.0345,2.0346,2.0239,2.0224,2.021,2.0194,2.0349,2.0349,2.0456,2.0457,2.0458]}]]